This demonstration page uses our WeatherBlox Daily Observations layout. Learn more.

39.92423, -83.80882

Hourly Observations for April 9, 2017

Temp ( °F °C ) Dew Point ( °F °C ) Humidity (%) Winds ( mph kmh ) Pressure ( in mb ) Visibility ( mi km ) Precip ( " mm )
12:56 am 00:56 Clear 48 8.9 30 -1.1 50 50 S 6 9 30.05 1018 10 16.0934 0 0
1:56 am 01:56 Clear 46 7.8 31 -0.6 56 56 SSE 9 15 30.04 1017 10 16.0934 0 0
2:56 am 02:56 Clear 45 7.2 31 -0.6 58 58 S 3 6 30.05 1018 10 16.0934 0 0
3:56 am 03:56 Clear 47 8.3 29 -1.7 50 50 S 6 9 30.03 1017 10 16.0934 0 0
4:56 am 04:56 Clear 46 7.8 30 -1.1 54 54 S 6 9 30.05 1018 10 16.0934 0 0
5:56 am 05:56 Clear 47 8.3 29 -1.7 50 50 S 6 9 30.05 1018 10 16.0934 0 0
6:56 am 06:56 Clear 46 7.8 30 -1.1 54 54 S 6 9 30.06 1018 10 16.0934 0 0
7:56 am 07:56 Sunny 47 8.3 30 -1.1 52 52 S 8 13 30.07 1018 10 16.0934 0 0
8:56 am 08:56 Sunny 53 11.7 33 0.6 47 47 S 9 15 30.07 1018 10 16.0934 0 0
9:56 am 09:56 Sunny 60 15.6 33 0.6 36 36 S 10 17 30.06 1018 10 16.0934 0 0
10:56 am 10:56 Sunny 62 16.7 35 1.7 37 37 S 9 15 30.06 1018 10 16.0934 0 0
11:56 am 11:56 Sunny 67 19.4 36 2.2 32 32 SSW 15 24 30.04 1017 10 16.0934 0 0
12:56 pm 12:56 Sunny 68 20 36 2.2 31 31 SSW 15 24 30.02 1017 10 16.0934 0 0
1:56 pm 13:56 Sunny 71 21.7 37 2.8 29 29 SW 17 28 30.01 1016 10 16.0934 0 0
2:56 pm 14:56 Sunny 72 22.2 38 3.3 29 29 S 16 26 29.98 1015 10 16.0934 0 0
3:56 pm 15:56 Sunny 73 22.8 37 2.8 27 27 S 18 30 29.96 1015 10 16.0934 0 0
4:56 pm 16:56 Sunny 74 23.3 36 2.2 25 25 S 15 24 29.93 1014 10 16.0934 0 0
5:56 pm 17:56 Sunny 73 22.8 37 2.8 27 27 S 16 26 29.93 1013 10 16.0934 0 0
6:56 pm 18:56 Sunny 71 21.7 39 3.9 31 31 S 12 19 29.93 1014 10 16.0934 0 0
7:56 pm 19:56 Sunny 68 20 39 3.9 35 35 S 9 15 29.93 1014 10 16.0934 0 0
8:56 pm 20:56 Clear 67 19.4 38 3.3 35 35 S 10 17 29.94 1014 10 16.0934 0 0
9:56 pm 21:56 Clear 64 17.8 39 3.9 40 40 S 8 13 29.94 1014 10 16.0934 0 0
10:56 pm 22:56 Clear 63 17.2 38 3.3 40 40 S 8 13 29.93 1014 10 16.0934 0 0
11:56 pm 23:56 Clear 63 17.2 38 3.3 40 40 S 8 13 29.92 1013 10 16.0934 0 0

Powered by AerisWeather